User: anonymous   Login
Location: ??????
(30.5519°N, 47.7720°E)
Time: 11:18:00
(UTC+00:00)
Language:

ARGOS - Orbit

View from above orbital plane
View from above orbital plane
View from above satellite
View from above satellite

Ground track
Ground track

The orbit data is extracted from the following two-line orbital elements,

1 25634U 99008A   21100.80440480 -.00000008  00000-0  15762-4 0  9992
2 25634  98.4263 131.7940 0011097 131.6442 228.5687 14.19392407145668
Epoch (UTC): 10 April 2021 19:18:20
Eccentricity: 0.0011097
inclination: 98.4263°
perigee height: 819 km
apogee height: 835 km
right ascension of ascending node: 131.7940°
argument of perigee: 131.6442°
revolutions per day: 14.19392407
mean anomaly at epoch: 228.5687°
orbit number at epoch: 14566

The dashed part of the orbit path shows where the satellite is in the earth's shadow,  

DLR